Regional Weather Roundup
Issued by NWS State College, PA

Home | Current Version | Previous Version | Graphics & Text | Print | Product List | Glossary Off
Versions: 1 2 3 4 5 6 7 8 9 10 11 12 13 14 15 16 17 18 19 20 21 22 23 24 25 26 27 28 29 30 31 32 33 34 35 36 37 38 39 40 41 42 43 44 45 46 47 48 49 50

000
ASUS41 KCTP 171710
RWRCTP

REGIONAL WEATHER ROUNDUP
NATIONAL WEATHER SERVICE STATE COLLEGE PA
100 PM EDT THU AUG 17 2017

Note: "fair" indicates few or no clouds below 12,000 feet with no
significant weather and/or obstructions to visibility.

* = STATION THAT DOES NOT REPORT PRECIPITATION /E.G. RAIN...SNOW...ETC/
    THUNDER OR FOG.

PAZ002>004-007>009-013>016-020>023-029>032-171800-
WESTERN PENNSYLVANIA

CITY           SKY/WX    TMP DP  RH WIND       PRES   REMARKS
ERIE           MOSUNNY   88  68  51 S18G24    29.90F
MEADVILLE      CLOUDY    81  69  67 S10       29.97F
FRANKLIN*      CLOUDY    81  66  61 SW13      29.99F
NEW CASTLE     FAIR      84  72  67 VRB3      29.96F
BEAVER COUNTY  SUNNY     82  88 100 S8G17     29.97F HX  97
BUTLER*        NOT AVBL
PITTSBURGH INT PTSUNNY   85  69  58 S12       29.97F
PITTSBURGH     CLOUDY    85  67  54 MISG      29.98F
INDIANA*       MOSUNNY   84  66  54 SW7       30.03F
LATROBE        MOSUNNY   86  64  48 S12       30.00F
WASHINGTON CO* CLOUDY    84  70  61 SW6       29.99F
$$

PAZ004>006-010>012-017>019-024>028-033>037-041-042-045-046-049>053-171800-
CENTRAL PENNSYLVANIA

CITY           SKY/WX    TMP DP  RH WIND       PRES   REMARKS
BRADFORD       SUNNY     80  65  59 SW5       30.03F
DUBOIS         MOSUNNY   83  65  54 SW9       30.01F
CLEARFIELD     SUNNY     83  64  52 VRB5      30.01F
JOHNSTOWN      MOSUNNY   83  63  50 SW6G17    30.06F
ALTOONA        MOSUNNY   80  70  71 VRB5      30.04F
STATE COLLEGE  MOSUNNY   81  66  61 S7        30.03F
WILLIAMSPORT   MOSUNNY   81  65  58 VRB3      30.00F
SELINSGROVE    SUNNY     82  71  69 VRB6      30.02F
FT INDIANTOWN  MOSUNNY   80  69  67 SE3       30.02F
CAPITAL CITY   MOSUNNY   84  68  58 E9        30.01F
HARRISBURG     MOSUNNY   84  70  62 SE5       30.00F
YORK           MOSUNNY   83  73  72 VRB5      30.01F
$$

PAZ038>040-043-044-047-048-054-055-060>062-067>071-171800-
EASTERN PENNSYLVANIA

CITY           SKY/WX    TMP DP  RH WIND       PRES   REMARKS
SCRANTON       PTSUNNY   81  63  54 VRB5      30.04F
MOUNT POCONO   MOSUNNY   73  61  65 SE8       30.10F
ALLENTOWN      SUNNY     83  64  52 S6        30.04F
QUAKERTOWN*    SUNNY     82  66  57 E3        30.06S
READING        SUNNY     84  69  60 VRB7      30.02F
LANCASTER      SUNNY     84  71  65 SE5       30.02F
COATESVILLE    SUNNY     82  68  61 E7        30.06S
POTTSTOWN      MOSUNNY   81  65  58 VRB3      30.05F
BLUE BELL      SUNNY     81  64  57 CALM      30.05S
DOYLESTOWN     SUNNY     81  65  58 VRB3      30.04F
WILLOW GROVE   NOT AVBL
NORTH PHILA    SUNNY     85  65  51 VRB6      30.05F
PHILADELPHIA   MOSUNNY   86  65  49 CALM      30.02F
$$



USA.gov is the U.S. government's official web portal to all federal, state and local government web resources and services.